Location: Carri�res
(48.9069°N, 2.1792°E)
Time: 18:56:57
(UTC+00:00)

SeaSat 1 - Pass Details

Date: 18 May 2021
Orbit: 744 x 747 km, 108.0° (Epoch: 12 June)

Event Time Altitude Azimuth Distance (km) Brightness Sun altitude
Rises 02:56:48 0° 20° (NNE) 3,203 7.1 -9.7°
Reaches altitude 10° 03:00:06 10° 356° (N) 2,275 5.6 -9.3°
Maximum altitude 03:02:37 14° 326° (NW) 1,999 4.8 -9.0°
Drops below altitude 10° 03:05:07 10° 295° (WNW) 2,271 4.7 -8.7°
Enters shadow 03:08:20 - 272° (W) 3,167 5.3 -8.3°
